Trinidad, CO

2:03 PM MST on December 11, 2017 (GMT -0700)
Stokes

Weather History for KTAD - November, 2013

Change the Weather History Date:

Sunday, November 17, 2013

  Actual Average Record
Temperature  
Mean Temperature 45 °F 40 °F  
Max Temperature 60 °F 55 °F 79 °F (1975)
Min Temperature 30 °F 25 °F -3 °F (1958)
Degree Days  
Heating Degree Days 20 25  
Month to date heating degree days 316 364  
Since 1 July heating degree days 777 865  
Cooling Degree Days 0 0  
Month to date cooling degree days 0 0  
Year to date cooling degree days 1068 719  
Moisture  
Dew Point 21 °F    
Average Humidity 37    
Maximum Humidity 54    
Minimum Humidity 20    
Precipitation  
Precipitation 0.00 in 0.02 in 0.56 in (1958)
Month to date precipitation T 0.44  
Year to date precipitation 9.64 13.04  
Sea Level Pressure  
Sea Level Pressure 29.78 in    
Wind  
Wind Speed 9 mph (ENE)    
Max Wind Speed 30 mph    
Max Gust Speed 38 mph    
Visibility 10 miles    
Events      
T = Trace of Precipitation, MM = Missing Value Source: NWS Daily Summary

Daily Weather History Graph

Daily Weather History Graph

Search for Another Location

Airport or City:

Trip Planner

Search our weather history database for the weather conditions in past years. The results will help you decide how hot, cold, wet, or windy it might be!

Date:

Astronomy

Nov. 17, 2013 Rise Set
Actual Time 6:38 AM MST 4:45 PM MST
Civil Twilight 6:10 AM MST 5:13 PM MST
Nautical Twilight 5:39 AM MST 5:45 PM MST
Astronomical Twilight 5:08 AM MST 6:16 PM MST
Moon 5:04 PM MST (11/17) 6:35 AM MST (11/17)
Length of Visible Light 11h 02m
Length of Day
10h 06m
Full, 100% of the Moon is Illuminated
Nov 17
Full
Nov 25
Last Quarter
Dec 2
New
Dec 9
First Quarter
Dec 17
Full

Hourly Weather History & Observations

Time (MST) Temp. Windchill Dew Point Humidity Pressure Visibility Wind Dir Wind Speed Gust Speed Precip Events Conditions
12:54 AM 50.0 °F - 25.0 °F 38% 29.43 in 10.0 mi West 21.9 mph 31.1 mph N/A   Clear
1:54 AM 48.9 °F - 24.1 °F 38% 29.47 in 10.0 mi West 20.7 mph - N/A   Clear
2:54 AM 48.0 °F - 23.0 °F 37% 29.50 in 10.0 mi West 15.0 mph - N/A   Clear
3:54 AM 43.0 °F - 24.1 °F 47% 29.54 in 10.0 mi Calm Calm - N/A   Clear
4:54 AM 39.9 °F 34.5 °F 23.0 °F 51% 29.58 in 10.0 mi North 8.1 mph - N/A   Clear
5:54 AM 42.1 °F - 24.1 °F 49% 29.64 in 10.0 mi Calm Calm - N/A   Clear
6:54 AM 39.9 °F - 23.0 °F 51% 29.71 in 10.0 mi Calm Calm - N/A   Clear
7:54 AM 48.0 °F - 23.0 °F 37% 29.71 in 10.0 mi Calm Calm - N/A   Clear
8:54 AM 50.0 °F - 23.0 °F 35% 29.74 in 10.0 mi SSE 9.2 mph - N/A   Clear
9:54 AM 54.0 °F - 21.0 °F 28% 29.75 in 10.0 mi ESE 13.8 mph 21.9 mph N/A   Clear
10:54 AM 55.9 °F - 21.9 °F 27% 29.78 in 10.0 mi ESE 13.8 mph - N/A   Clear
11:54 AM 55.9 °F - 21.0 °F 26% 29.77 in 10.0 mi ESE 10.4 mph 16.1 mph N/A   Clear
12:54 PM 57.9 °F - 21.0 °F 24% 29.77 in 10.0 mi SE 6.9 mph - N/A   Clear
1:54 PM 60.1 °F - 19.9 °F 21% 29.76 in 10.0 mi East 9.2 mph - N/A   Clear
2:54 PM 60.1 °F - 19.9 °F 21% 29.77 in 10.0 mi East 9.2 mph - N/A   Clear
3:54 PM 57.9 °F - 21.0 °F 24% 29.81 in 10.0 mi NE 12.7 mph - N/A   Clear
4:54 PM 51.1 °F - 19.0 °F 28% 29.86 in 10.0 mi ENE 6.9 mph - N/A   Clear
5:54 PM 48.0 °F - 19.9 °F 33% 29.91 in 10.0 mi East 4.6 mph - N/A   Clear
6:54 PM 44.1 °F 39.5 °F 19.9 °F 38% 29.97 in 10.0 mi NNE 8.1 mph - N/A   Clear
7:54 PM 42.1 °F 35.7 °F 19.0 °F 40% 30.00 in 10.0 mi WNW 11.5 mph - N/A   Clear
8:54 PM 36.0 °F 28.5 °F 18.0 °F 48% 30.04 in 10.0 mi NW 10.4 mph - N/A   Clear
9:54 PM 37.0 °F 32.4 °F 19.0 °F 48% 30.04 in 10.0 mi West 5.8 mph - N/A   Clear
10:54 PM 32.0 °F 28.7 °F 17.1 °F 54% 30.07 in 10.0 mi West 3.5 mph - N/A   Clear
11:54 PM 32.0 °F 24.2 °F 17.1 °F 54% 30.06 in 10.0 mi SW 9.2 mph - N/A   Clear